Bogalusa, LA

3:56 PM CDT on May 26, 2018 (GMT -0500)
Carr Memorial

Weather History for KBXA - January, 2013

Change the Weather History Date:

Wednesday, January 16, 2013

  Actual Average Record
Temperature  
Mean Temperature 39 °F -  
Max Temperature 42 °F 59 °F 78 °F (2017)
Min Temperature 36 °F 36 °F 24 °F (2018)
Degree Days  
Heating Degree Days 26    
Moisture  
Dew Point 39 °F    
Average Humidity 100    
Maximum Humidity 100    
Minimum Humidity 100    
Precipitation  
Precipitation 0.25 in - - ()
Sea Level Pressure  
Sea Level Pressure 30.09 in    
Wind  
Wind Speed 8 mph (NNW)    
Max Wind Speed 13 mph    
Max Gust Speed 17 mph    
Visibility 7 miles    
Events Rain    
Averages and records for this station are not official NWS values.
T = Trace of Precipitation, MM = Missing Value Source: NWS Daily Summary

Daily Weather History Graph

Daily Weather History Graph

Search for Another Location

Airport or City:

Astronomy

Jan. 16, 2013 Rise Set
Actual Time 6:57 AM CST 5:21 PM CST
Civil Twilight 6:31 AM CST 5:47 PM CST
Nautical Twilight 6:01 AM CST 6:17 PM CST
Astronomical Twilight 5:32 AM CST 6:46 PM CST
Moon 9:59 AM CST (1/16) 10:45 PM CST (1/16)
Length of Visible Light 11h 15m
Length of Day
10h 23m
Waxing Crescent, 28% of the Moon is Illuminated
Jan 16
Waxing Crescent
Jan 18
First Quarter
Jan 26
Full
Feb 3
Last Quarter
Feb 10
New

Hourly Weather History & Observations

Time (CST) Temp. Windchill Dew Point Humidity Pressure Visibility Wind Dir Wind Speed Gust Speed Precip Events Conditions
12:15 AM 42.4 °F 38.1 °F 42.4 °F 100% 30.01 in 5.0 mi North 6.9 mph - N/A   Overcast
12:35 AM 42.4 °F 37.0 °F 42.4 °F 100% 30.00 in 3.0 mi North 9.2 mph - N/A   Overcast
12:55 AM 42.1 °F 38.4 °F 42.1 °F 100% 30.02 in 4.0 mi North 5.8 mph - N/A   Overcast
1:15 AM 41.9 °F 36.9 °F 41.9 °F 100% 30.03 in 3.0 mi NNW 8.1 mph - N/A   Overcast
1:35 AM 41.5 °F 36.4 °F 41.5 °F 100% 30.03 in 2.5 mi North 8.1 mph - N/A   Overcast
1:55 AM 40.8 °F 35.0 °F 40.8 °F 100% 30.03 in 3.0 mi North 9.2 mph - N/A   Overcast
2:35 AM 40.1 °F 33.6 °F 40.1 °F 100% 30.03 in 5.0 mi North 10.4 mph - N/A   Overcast
2:55 AM 39.2 °F 32.5 °F 39.2 °F 100% 30.03 in 10.0 mi North 10.4 mph - N/A   Unknown
3:15 AM 39.2 °F 32.0 °F 39.2 °F 100% 30.03 in 10.0 mi North 11.5 mph - N/A   Unknown
3:35 AM 38.8 °F 33.2 °F 38.8 °F 100% 30.03 in 10.0 mi North 8.1 mph - N/A   Drizzle
3:55 AM 39.0 °F 35.7 °F 39.0 °F 100% 30.04 in 10.0 mi North 4.6 mph - N/A   Light Drizzle
4:15 AM 39.2 °F 33.6 °F 39.2 °F 100% 30.04 in 10.0 mi North 8.1 mph - N/A   Unknown
4:35 AM 39.0 °F 34.0 °F 39.0 °F 100% 30.05 in 10.0 mi North 6.9 mph - N/A   Unknown
4:55 AM 39.0 °F 34.0 °F 39.0 °F 100% 30.03 in 10.0 mi North 6.9 mph - N/A   Light Drizzle
5:35 AM 38.7 °F 31.8 °F 38.7 °F 100% 30.04 in 3.0 mi North 10.4 mph - 0.04 in Rain Heavy Rain
5:55 AM 38.7 °F 32.9 °F 38.7 °F 100% 30.05 in 10.0 mi North 8.1 mph - 0.06 in Rain Rain
6:15 AM 38.5 °F 31.1 °F 38.5 °F 100% 30.06 in 7.0 mi North 11.5 mph - 0.01 in   Drizzle
6:35 AM 38.5 °F 31.6 °F 38.5 °F 100% 30.07 in 4.0 mi North 10.4 mph - 0.04 in Rain Heavy Rain
6:55 AM 38.7 °F 33.6 °F 38.7 °F 100% 30.08 in 3.0 mi North 6.9 mph - 0.08 in Rain Rain
7:15 AM 38.5 °F 32.1 °F 38.5 °F 100% 30.07 in 5.0 mi North 9.2 mph - 0.01 in   Heavy Drizzle
7:35 AM 38.3 °F 31.4 °F 38.3 °F 100% 30.08 in 10.0 mi North 10.4 mph - 0.02 in   Light Drizzle
7:55 AM 38.5 °F 34.1 °F 38.5 °F 100% 30.10 in 5.0 mi North 5.8 mph - 0.02 in   Heavy Drizzle
8:15 AM 38.5 °F 35.0 °F 38.5 °F 100% 30.10 in 3.0 mi North 4.6 mph - 0.01 in   Drizzle
8:35 AM 38.5 °F 32.7 °F 38.5 °F 100% 30.12 in 2.5 mi North 8.1 mph - 0.02 in   Heavy Drizzle
8:55 AM 38.7 °F 31.8 °F 38.7 °F 100% 30.13 in 4.0 mi North 10.4 mph - 0.05 in Rain Heavy Rain
9:15 AM 38.8 °F 31.2 °F 38.8 °F 100% 30.11 in 5.0 mi North 12.7 mph 16.1 mph N/A   Drizzle
9:35 AM 39.0 °F 34.8 °F 39.0 °F 100% 30.12 in 7.0 mi North 5.8 mph - N/A Rain Light Rain
9:55 AM 39.0 °F 33.4 °F 39.0 °F 100% 30.13 in 5.0 mi NNW 8.1 mph - 0.02 in Rain Rain
10:15 AM 39.2 °F 33.6 °F 39.2 °F 100% 30.13 in 4.0 mi NNW 8.1 mph - 0.01 in   Drizzle
10:35 AM 39.2 °F 32.5 °F 39.2 °F 100% 30.11 in 3.0 mi North 10.4 mph - 0.01 in   Light Drizzle
10:55 AM 39.2 °F 31.6 °F 39.2 °F 100% 30.11 in 7.0 mi NNW 12.7 mph - 0.01 in   Light Drizzle
11:15 AM 39.2 °F 32.0 °F 39.2 °F 100% 30.11 in 7.0 mi North 11.5 mph 17.3 mph 0.01 in Rain Rain
11:35 AM 38.8 °F 33.2 °F 38.8 °F 100% 30.11 in 7.0 mi North 8.1 mph - 0.01 in   Light Drizzle
11:55 AM 39.4 °F 33.2 °F 39.4 °F 100% 30.11 in 7.0 mi North 9.2 mph - 0.01 in   Unknown
12:15 PM 39.2 °F 32.5 °F 39.2 °F 100% 30.10 in 3.0 mi NNW 10.4 mph - N/A   Mist
12:55 PM 40.1 °F 34.7 °F 40.1 °F 100% 30.08 in 10.0 mi North 8.1 mph 16.1 mph N/A   Unknown
1:15 PM 40.3 °F 34.4 °F 40.3 °F 100% 30.09 in 10.0 mi North 9.2 mph - N/A   Unknown
1:35 PM 39.7 °F 33.2 °F 39.7 °F 100% 30.08 in 10.0 mi NNW 10.4 mph - N/A   Unknown
1:55 PM 40.5 °F 34.6 °F 40.5 °F 100% 30.06 in 10.0 mi North 9.2 mph - N/A   Unknown
2:15 PM 40.5 °F 35.1 °F 40.5 °F 100% 30.05 in 10.0 mi North 8.1 mph - N/A   Unknown
2:35 PM 40.5 °F 33.6 °F 40.5 °F 100% 30.05 in 10.0 mi North 11.5 mph - N/A   Unknown
2:55 PM 40.6 °F 35.4 °F 40.6 °F 100% 30.05 in 10.0 mi NNE 8.1 mph - N/A   Unknown
3:15 PM 40.5 °F 35.8 °F 40.5 °F 100% 30.07 in 10.0 mi NNW 6.9 mph - N/A   Unknown
3:35 PM 40.3 °F 35.5 °F 40.3 °F 100% 30.07 in 10.0 mi NW 6.9 mph - N/A   Unknown
3:55 PM 39.9 °F 33.9 °F 39.9 °F 100% 30.08 in 10.0 mi NNW 9.2 mph - N/A   Unknown
4:15 PM 39.9 °F 33.9 °F 39.9 °F 100% 30.09 in 10.0 mi NNW 9.2 mph - N/A   Unknown
4:35 PM 39.2 °F 33.0 °F 39.2 °F 100% 30.09 in 2.0 mi NNW 9.2 mph - N/A   Mist
4:55 PM 38.7 °F 33.6 °F 38.7 °F 100% 30.10 in 1.5 mi NW 6.9 mph - N/A   Mist
5:15 PM 38.3 °F 32.5 °F 38.3 °F 100% 30.11 in 2.5 mi NNW 8.1 mph - N/A   Mist
5:35 PM 38.3 °F 33.9 °F 38.3 °F 100% 30.12 in 10.0 mi NNW 5.8 mph - N/A   Unknown
5:55 PM 38.3 °F 34.8 °F 38.3 °F 100% 30.12 in 10.0 mi NW 4.6 mph - N/A   Unknown
6:15 PM 38.3 °F 32.5 °F 38.3 °F 100% 30.12 in 10.0 mi NNW 8.1 mph - N/A   Unknown
6:35 PM 37.8 °F 32.5 °F 37.8 °F 100% 30.14 in 10.0 mi NNW 6.9 mph - N/A   Drizzle
6:55 PM 37.8 °F 32.5 °F 37.8 °F 100% 30.13 in 10.0 mi NNW 6.9 mph - N/A   Unknown
7:15 PM 37.4 °F 30.3 °F 37.4 °F 100% 30.13 in 10.0 mi NNW 10.4 mph - N/A   Unknown
7:35 PM 36.9 °F 30.7 °F 36.9 °F 100% 30.13 in 10.0 mi North 8.1 mph - N/A   Unknown
7:55 PM 36.9 °F 30.1 °F 36.9 °F 100% 30.13 in 10.0 mi North 9.2 mph - N/A   Unknown
8:15 PM 36.9 °F 30.1 °F 36.9 °F 100% 30.13 in 10.0 mi North 9.2 mph - N/A   Unknown
8:35 PM 37.0 °F 31.6 °F 37.0 °F 100% 30.14 in 10.0 mi NNW 6.9 mph - N/A   Unknown
8:55 PM 37.0 °F 33.3 °F 37.0 °F 100% 30.14 in 4.0 mi WNW 4.6 mph - N/A   Mist
9:15 PM 36.9 °F 32.2 °F 36.9 °F 100% 30.15 in 5.0 mi NW 5.8 mph - N/A   Mist
9:35 PM 36.9 °F 32.2 °F 36.9 °F 100% 30.14 in 5.0 mi NW 5.8 mph - N/A   Mist
9:55 PM 36.9 °F 33.1 °F 36.9 °F 100% 30.14 in 7.0 mi NW 4.6 mph - N/A   Unknown
10:15 PM 37.0 °F 32.4 °F 37.0 °F 100% 30.13 in 10.0 mi NW 5.8 mph - N/A   Unknown
10:35 PM 37.0 °F 31.6 °F 37.0 °F 100% 30.14 in 10.0 mi NW 6.9 mph - N/A   Unknown
10:55 PM 37.0 °F 31.6 °F 37.0 °F 100% 30.14 in 10.0 mi WNW 6.9 mph - N/A   Unknown
11:15 PM 36.9 °F 33.1 °F 36.9 °F 100% 30.14 in 10.0 mi West 4.6 mph - N/A   Unknown
11:35 PM 36.7 °F 31.2 °F 36.7 °F 100% 30.14 in 4.0 mi WNW 6.9 mph - N/A   Mist
11:55 PM 36.5 °F 29.7 °F 36.5 °F 100% 30.14 in 2.5 mi WNW 9.2 mph - N/A   Mist